<?xml version="1.0" encoding="UTF-8" standalone="no" ?>
<gpx xmlns="http://www.topografix.com/GPX/1/1" xmlns:xsi="http://www.w3.org/2001/XMLSchema-instance" xsi:schemaLocation="http://www.topografix.com/GPX/1/1 http://www.topografix.com/GPX/1/1/gpx.xsd" version="1.1" creator="VisuGPX - https://www.visugpx.com">
  <metadata>
    <name>Rando lot 2013 - 1 cajarc pech merle</name>
    <desc><![CDATA[en projet
etape 1]]></desc>
  </metadata>
  <trk>
    <name><![CDATA[Cajarc-pech merle]]></name>
    <trkseg>
      <trkpt lat="44.51102" lon="1.83391">
        <ele>358.8</ele>
        <time>2013-05-03T18:12:49Z</time>
      </trkpt>
      <trkpt lat="44.51102" lon="1.83391">
        <ele>358.8</ele>
        <time>2013-05-03T18:12:49Z</time>
      </trkpt>
      <trkpt lat="44.51033" lon="1.83397">
        <ele>366</ele>
        <time>2013-05-03T18:12:49Z</time>
      </trkpt>
      <trkpt lat="44.50908" lon="1.83326">
        <ele>361.6</ele>
        <time>2013-05-03T18:12:49Z</time>
      </trkpt>
      <trkpt lat="44.50921" lon="1.83254">
        <ele>358.9</ele>
        <time>2013-05-03T18:12:49Z</time>
      </trkpt>
      <trkpt lat="44.50817" lon="1.83129">
        <ele>359.3</ele>
        <time>2013-05-03T18:12:49Z</time>
      </trkpt>
      <trkpt lat="44.50929" lon="1.83074">
        <ele>349.8</ele>
        <time>2013-05-03T18:12:49Z</time>
      </trkpt>
      <trkpt lat="44.5104" lon="1.82941">
        <ele>332.8</ele>
        <time>2013-05-03T18:12:49Z</time>
      </trkpt>
      <trkpt lat="44.51207" lon="1.8288">
        <ele>325.2</ele>
        <time>2013-05-03T18:12:49Z</time>
      </trkpt>
      <trkpt lat="44.51327" lon="1.82879">
        <ele>318.7</ele>
        <time>2013-05-03T18:12:49Z</time>
      </trkpt>
      <trkpt lat="44.51408" lon="1.82878">
        <ele>317.6</ele>
        <time>2013-05-03T18:12:49Z</time>
      </trkpt>
      <trkpt lat="44.51408" lon="1.8271">
        <ele>304.6</ele>
        <time>2013-05-03T18:12:49Z</time>
      </trkpt>
      <trkpt lat="44.51343" lon="1.82614">
        <ele>306.9</ele>
        <time>2013-05-03T18:12:49Z</time>
      </trkpt>
      <trkpt lat="44.51346" lon="1.82464">
        <ele>304</ele>
        <time>2013-05-03T18:12:49Z</time>
      </trkpt>
      <trkpt lat="44.51289" lon="1.82201">
        <ele>275.4</ele>
        <time>2013-05-03T18:12:49Z</time>
      </trkpt>
      <trkpt lat="44.51229" lon="1.82136">
        <ele>267.6</ele>
        <time>2013-05-03T18:12:49Z</time>
      </trkpt>
      <trkpt lat="44.5113" lon="1.8216">
        <ele>279.3</ele>
        <time>2013-05-03T18:12:49Z</time>
      </trkpt>
      <trkpt lat="44.51112" lon="1.81993">
        <ele>252.5</ele>
        <time>2013-05-03T18:12:49Z</time>
      </trkpt>
      <trkpt lat="44.51031" lon="1.81957">
        <ele>263.9</ele>
        <time>2013-05-03T18:12:49Z</time>
      </trkpt>
      <trkpt lat="44.51004" lon="1.81856">
        <ele>268.1</ele>
        <time>2013-05-03T18:12:49Z</time>
      </trkpt>
      <trkpt lat="44.51" lon="1.81754">
        <ele>257.8</ele>
        <time>2013-05-03T18:12:49Z</time>
      </trkpt>
      <trkpt lat="44.51033" lon="1.81621">
        <ele>244</ele>
        <time>2013-05-03T18:12:49Z</time>
      </trkpt>
      <trkpt lat="44.51024" lon="1.81465">
        <ele>240.6</ele>
        <time>2013-05-03T18:12:49Z</time>
      </trkpt>
      <trkpt lat="44.51024" lon="1.81363">
        <ele>228.2</ele>
        <time>2013-05-03T18:12:49Z</time>
      </trkpt>
      <trkpt lat="44.5095" lon="1.81208">
        <ele>227.8</ele>
        <time>2013-05-03T18:12:49Z</time>
      </trkpt>
      <trkpt lat="44.50804" lon="1.81137">
        <ele>225.6</ele>
        <time>2013-05-03T18:12:49Z</time>
      </trkpt>
      <trkpt lat="44.50747" lon="1.81084">
        <ele>236.5</ele>
        <time>2013-05-03T18:12:49Z</time>
      </trkpt>
      <trkpt lat="44.50686" lon="1.80869">
        <ele>218.3</ele>
        <time>2013-05-03T18:12:49Z</time>
      </trkpt>
      <trkpt lat="44.50561" lon="1.80798">
        <ele>218.6</ele>
        <time>2013-05-03T18:12:49Z</time>
      </trkpt>
      <trkpt lat="44.5044" lon="1.80631">
        <ele>217.2</ele>
        <time>2013-05-03T18:12:49Z</time>
      </trkpt>
      <trkpt lat="44.50401" lon="1.80523">
        <ele>214.5</ele>
        <time>2013-05-03T18:12:49Z</time>
      </trkpt>
      <trkpt lat="44.50177" lon="1.80219">
        <ele>206.5</ele>
        <time>2013-05-03T18:12:49Z</time>
      </trkpt>
      <trkpt lat="44.50167" lon="1.80076">
        <ele>208.8</ele>
        <time>2013-05-03T18:12:49Z</time>
      </trkpt>
      <trkpt lat="44.49955" lon="1.79766">
        <ele>195.3</ele>
        <time>2013-05-03T18:12:49Z</time>
      </trkpt>
      <trkpt lat="44.49874" lon="1.79742">
        <ele>190.7</ele>
        <time>2013-05-03T18:12:49Z</time>
      </trkpt>
      <trkpt lat="44.49753" lon="1.79576">
        <ele>193.4</ele>
        <time>2013-05-03T18:12:49Z</time>
      </trkpt>
      <trkpt lat="44.49567" lon="1.79362">
        <ele>185.7</ele>
        <time>2013-05-03T18:12:49Z</time>
      </trkpt>
      <trkpt lat="44.49609" lon="1.79259">
        <ele>184.4</ele>
        <time>2013-05-03T18:12:49Z</time>
      </trkpt>
      <trkpt lat="44.49866" lon="1.79125">
        <ele>187.8</ele>
        <time>2013-05-03T18:12:49Z</time>
      </trkpt>
      <trkpt lat="44.49866" lon="1.79125">
        <ele>187.8</ele>
        <time>2013-05-03T18:12:49Z</time>
      </trkpt>
      <trkpt lat="44.49986" lon="1.78926">
        <ele>198.2</ele>
        <time>2013-05-03T18:12:49Z</time>
      </trkpt>
      <trkpt lat="44.49968" lon="1.78848">
        <ele>211.8</ele>
        <time>2013-05-03T18:12:49Z</time>
      </trkpt>
      <trkpt lat="44.50092" lon="1.78715">
        <ele>205.9</ele>
        <time>2013-05-03T18:12:49Z</time>
      </trkpt>
      <trkpt lat="44.50211" lon="1.78473">
        <ele>224.6</ele>
        <time>2013-05-03T18:12:49Z</time>
      </trkpt>
      <trkpt lat="44.50279" lon="1.78323">
        <ele>235</ele>
        <time>2013-05-03T18:12:49Z</time>
      </trkpt>
      <trkpt lat="44.5036" lon="1.7819">
        <ele>236.8</ele>
        <time>2013-05-03T18:12:49Z</time>
      </trkpt>
      <trkpt lat="44.50358" lon="1.77932">
        <ele>242.6</ele>
        <time>2013-05-03T18:12:49Z</time>
      </trkpt>
      <trkpt lat="44.50336" lon="1.778">
        <ele>242</ele>
        <time>2013-05-03T18:12:49Z</time>
      </trkpt>
      <trkpt lat="44.50198" lon="1.77652">
        <ele>250.1</ele>
        <time>2013-05-03T18:12:49Z</time>
      </trkpt>
      <trkpt lat="44.50137" lon="1.77484">
        <ele>266.9</ele>
        <time>2013-05-03T18:12:49Z</time>
      </trkpt>
      <trkpt lat="44.50166" lon="1.77316">
        <ele>291</ele>
        <time>2013-05-03T18:12:49Z</time>
      </trkpt>
      <trkpt lat="44.50217" lon="1.77244">
        <ele>299.5</ele>
        <time>2013-05-03T18:12:49Z</time>
      </trkpt>
      <trkpt lat="44.50273" lon="1.77171">
        <ele>310.9</ele>
        <time>2013-05-03T18:12:49Z</time>
      </trkpt>
      <trkpt lat="44.50242" lon="1.77093">
        <ele>316.9</ele>
        <time>2013-05-03T18:12:49Z</time>
      </trkpt>
      <trkpt lat="44.5014" lon="1.77136">
        <ele>315.4</ele>
        <time>2013-05-03T18:12:49Z</time>
      </trkpt>
      <trkpt lat="44.50092" lon="1.77095">
        <ele>320.5</ele>
        <time>2013-05-03T18:12:49Z</time>
      </trkpt>
      <trkpt lat="44.49921" lon="1.77271">
        <ele>333.5</ele>
        <time>2013-05-03T18:12:49Z</time>
      </trkpt>
      <trkpt lat="44.49707" lon="1.77327">
        <ele>344.6</ele>
        <time>2013-05-03T18:12:49Z</time>
      </trkpt>
      <trkpt lat="44.49574" lon="1.77262">
        <ele>350.1</ele>
        <time>2013-05-03T18:12:49Z</time>
      </trkpt>
      <trkpt lat="44.49368" lon="1.7727">
        <ele>356.8</ele>
        <time>2013-05-03T18:12:49Z</time>
      </trkpt>
      <trkpt lat="44.49179" lon="1.77344">
        <ele>361</ele>
        <time>2013-05-03T18:12:49Z</time>
      </trkpt>
      <trkpt lat="44.49225" lon="1.77194">
        <ele>363.2</ele>
        <time>2013-05-03T18:12:49Z</time>
      </trkpt>
      <trkpt lat="44.49246" lon="1.76983">
        <ele>352.2</ele>
        <time>2013-05-03T18:12:49Z</time>
      </trkpt>
      <trkpt lat="44.49352" lon="1.76718">
        <ele>350.9</ele>
        <time>2013-05-03T18:12:49Z</time>
      </trkpt>
      <trkpt lat="44.49441" lon="1.76448">
        <ele>368.2</ele>
        <time>2013-05-03T18:12:49Z</time>
      </trkpt>
      <trkpt lat="44.49435" lon="1.76196">
        <ele>360</ele>
        <time>2013-05-03T18:12:49Z</time>
      </trkpt>
      <trkpt lat="44.49333" lon="1.75651">
        <ele>343.8</ele>
        <time>2013-05-03T18:12:49Z</time>
      </trkpt>
      <trkpt lat="44.49232" lon="1.7522">
        <ele>336.3</ele>
        <time>2013-05-03T18:12:49Z</time>
      </trkpt>
      <trkpt lat="44.49214" lon="1.74986">
        <ele>338</ele>
        <time>2013-05-03T18:12:49Z</time>
      </trkpt>
      <trkpt lat="44.49264" lon="1.74662">
        <ele>343.7</ele>
        <time>2013-05-03T18:12:49Z</time>
      </trkpt>
      <trkpt lat="44.49237" lon="1.74506">
        <ele>351.6</ele>
        <time>2013-05-03T18:12:49Z</time>
      </trkpt>
      <trkpt lat="44.49107" lon="1.74238">
        <ele>354.5</ele>
        <time>2013-05-03T18:12:49Z</time>
      </trkpt>
      <trkpt lat="44.49033" lon="1.74017">
        <ele>365.1</ele>
        <time>2013-05-03T18:12:49Z</time>
      </trkpt>
      <trkpt lat="44.49134" lon="1.73722">
        <ele>372.5</ele>
        <time>2013-05-03T18:12:49Z</time>
      </trkpt>
      <trkpt lat="44.4927" lon="1.7345">
        <ele>364.9</ele>
        <time>2013-05-03T18:12:49Z</time>
      </trkpt>
      <trkpt lat="44.49396" lon="1.72915">
        <ele>361.6</ele>
        <time>2013-05-03T18:12:49Z</time>
      </trkpt>
      <trkpt lat="44.49344" lon="1.72898">
        <ele>362.9</ele>
        <time>2013-05-03T18:12:49Z</time>
      </trkpt>
      <trkpt lat="44.49335" lon="1.72718">
        <ele>357</ele>
        <time>2013-05-03T18:12:49Z</time>
      </trkpt>
      <trkpt lat="44.49448" lon="1.72201">
        <ele>349.6</ele>
        <time>2013-05-03T18:12:49Z</time>
      </trkpt>
      <trkpt lat="44.49547" lon="1.72332">
        <ele>351.4</ele>
        <time>2013-05-03T18:12:49Z</time>
      </trkpt>
      <trkpt lat="44.4964" lon="1.72085">
        <ele>344.6</ele>
        <time>2013-05-03T18:12:49Z</time>
      </trkpt>
      <trkpt lat="44.49837" lon="1.72017">
        <ele>322.1</ele>
        <time>2013-05-03T18:12:49Z</time>
      </trkpt>
      <trkpt lat="44.49949" lon="1.72015">
        <ele>305.7</ele>
        <time>2013-05-03T18:12:49Z</time>
      </trkpt>
      <trkpt lat="44.5006" lon="1.71918">
        <ele>292.2</ele>
        <time>2013-05-03T18:12:49Z</time>
      </trkpt>
      <trkpt lat="44.50055" lon="1.71858">
        <ele>294.8</ele>
        <time>2013-05-03T18:12:49Z</time>
      </trkpt>
      <trkpt lat="44.49999" lon="1.71775">
        <ele>306.9</ele>
        <time>2013-05-03T18:12:49Z</time>
      </trkpt>
      <trkpt lat="44.50002" lon="1.71607">
        <ele>301.7</ele>
        <time>2013-05-03T18:12:49Z</time>
      </trkpt>
      <trkpt lat="44.49972" lon="1.71535">
        <ele>306.9</ele>
        <time>2013-05-03T18:12:49Z</time>
      </trkpt>
      <trkpt lat="44.50005" lon="1.71283">
        <ele>296.6</ele>
        <time>2013-05-03T18:12:49Z</time>
      </trkpt>
      <trkpt lat="44.50086" lon="1.71198">
        <ele>289.8</ele>
        <time>2013-05-03T18:12:49Z</time>
      </trkpt>
      <trkpt lat="44.50163" lon="1.71203">
        <ele>290</ele>
        <time>2013-05-03T18:12:49Z</time>
      </trkpt>
      <trkpt lat="44.50279" lon="1.71124">
        <ele>286.9</ele>
        <time>2013-05-03T18:12:49Z</time>
      </trkpt>
      <trkpt lat="44.50364" lon="1.70979">
        <ele>278.2</ele>
        <time>2013-05-03T18:12:49Z</time>
      </trkpt>
      <trkpt lat="44.50462" lon="1.70972">
        <ele>278.7</ele>
        <time>2013-05-03T18:12:49Z</time>
      </trkpt>
      <trkpt lat="44.50539" lon="1.70791">
        <ele>277.7</ele>
        <time>2013-05-03T18:12:49Z</time>
      </trkpt>
      <trkpt lat="44.50585" lon="1.70658">
        <ele>274.3</ele>
        <time>2013-05-03T18:12:49Z</time>
      </trkpt>
      <trkpt lat="44.50576" lon="1.70581">
        <ele>271.5</ele>
        <time>2013-05-03T18:12:49Z</time>
      </trkpt>
      <trkpt lat="44.5046" lon="1.70468">
        <ele>272.4</ele>
        <time>2013-05-03T18:12:49Z</time>
      </trkpt>
      <trkpt lat="44.50418" lon="1.69922">
        <ele>260.3</ele>
        <time>2013-05-03T18:12:49Z</time>
      </trkpt>
      <trkpt lat="44.50336" lon="1.69881">
        <ele>261.4</ele>
        <time>2013-05-03T18:12:49Z</time>
      </trkpt>
      <trkpt lat="44.50258" lon="1.69708">
        <ele>260</ele>
        <time>2013-05-03T18:12:49Z</time>
      </trkpt>
      <trkpt lat="44.502" lon="1.69355">
        <ele>267</ele>
        <time>2013-05-03T18:12:49Z</time>
      </trkpt>
      <trkpt lat="44.501" lon="1.69158">
        <ele>260</ele>
        <time>2013-05-03T18:12:49Z</time>
      </trkpt>
      <trkpt lat="44.50073" lon="1.69027">
        <ele>254.9</ele>
        <time>2013-05-03T18:12:49Z</time>
      </trkpt>
      <trkpt lat="44.49961" lon="1.68896">
        <ele>246.5</ele>
        <time>2013-05-03T18:12:49Z</time>
      </trkpt>
      <trkpt lat="44.50046" lon="1.68721">
        <ele>245.3</ele>
        <time>2013-05-03T18:12:49Z</time>
      </trkpt>
      <trkpt lat="44.50174" lon="1.68545">
        <ele>246.5</ele>
        <time>2013-05-03T18:12:49Z</time>
      </trkpt>
      <trkpt lat="44.50195" lon="1.68479">
        <ele>243.1</ele>
        <time>2013-05-03T18:12:49Z</time>
      </trkpt>
      <trkpt lat="44.50435" lon="1.68446">
        <ele>246.1</ele>
        <time>2013-05-03T18:12:49Z</time>
      </trkpt>
      <trkpt lat="44.50529" lon="1.68379">
        <ele>246.3</ele>
        <time>2013-05-03T18:12:49Z</time>
      </trkpt>
      <trkpt lat="44.50752" lon="1.68365">
        <ele>241.7</ele>
        <time>2013-05-03T18:12:49Z</time>
      </trkpt>
      <trkpt lat="44.50927" lon="1.68171">
        <ele>238.1</ele>
        <time>2013-05-03T18:12:49Z</time>
      </trkpt>
      <trkpt lat="44.51003" lon="1.67912">
        <ele>235.6</ele>
        <time>2013-05-03T18:12:49Z</time>
      </trkpt>
      <trkpt lat="44.51083" lon="1.67683">
        <ele>234.9</ele>
        <time>2013-05-03T18:12:49Z</time>
      </trkpt>
      <trkpt lat="44.51028" lon="1.67126">
        <ele>242.3</ele>
        <time>2013-05-03T18:12:49Z</time>
      </trkpt>
      <trkpt lat="44.50938" lon="1.67151">
        <ele>232.3</ele>
        <time>2013-05-03T18:12:49Z</time>
      </trkpt>
      <trkpt lat="44.50916" lon="1.66989">
        <ele>225.8</ele>
        <time>2013-05-03T18:12:49Z</time>
      </trkpt>
      <trkpt lat="44.50827" lon="1.66881">
        <ele>221.4</ele>
        <time>2013-05-03T18:12:49Z</time>
      </trkpt>
      <trkpt lat="44.50624" lon="1.66657">
        <ele>215.2</ele>
        <time>2013-05-03T18:12:49Z</time>
      </trkpt>
      <trkpt lat="44.50635" lon="1.66376">
        <ele>212.2</ele>
        <time>2013-05-03T18:12:49Z</time>
      </trkpt>
      <trkpt lat="44.50708" lon="1.66115">
        <ele>201.1</ele>
        <time>2013-05-03T18:12:49Z</time>
      </trkpt>
      <trkpt lat="44.50742" lon="1.65935">
        <ele>206</ele>
        <time>2013-05-03T18:12:49Z</time>
      </trkpt>
      <trkpt lat="44.50784" lon="1.65779">
        <ele>190.4</ele>
        <time>2013-05-03T18:12:49Z</time>
      </trkpt>
      <trkpt lat="44.50709" lon="1.65709">
        <ele>188.8</ele>
        <time>2013-05-03T18:12:49Z</time>
      </trkpt>
      <trkpt lat="44.50706" lon="1.65677">
        <ele>182.5</ele>
        <time>2013-05-03T18:12:49Z</time>
      </trkpt>
      <trkpt lat="44.5063" lon="1.65627">
        <ele>179.7</ele>
        <time>2013-05-03T18:12:49Z</time>
      </trkpt>
      <trkpt lat="44.50624" lon="1.6556">
        <ele>177</ele>
        <time>2013-05-03T18:12:49Z</time>
      </trkpt>
      <trkpt lat="44.50574" lon="1.65518">
        <ele>171.5</ele>
        <time>2013-05-03T18:12:49Z</time>
      </trkpt>
      <trkpt lat="44.50588" lon="1.65445">
        <ele>135</ele>
        <time>2013-05-03T18:12:49Z</time>
      </trkpt>
      <trkpt lat="44.50525" lon="1.65374">
        <ele>153.7</ele>
        <time>2013-05-03T18:12:49Z</time>
      </trkpt>
      <trkpt lat="44.50511" lon="1.65277">
        <ele>156.3</ele>
        <time>2013-05-03T18:12:49Z</time>
      </trkpt>
      <trkpt lat="44.50688" lon="1.65154">
        <ele>132.7</ele>
        <time>2013-05-03T18:12:49Z</time>
      </trkpt>
      <trkpt lat="44.50765" lon="1.65059">
        <ele>135.4</ele>
        <time>2013-05-03T18:12:49Z</time>
      </trkpt>
      <trkpt lat="44.50895" lon="1.64985">
        <ele>138</ele>
        <time>2013-05-03T18:12:49Z</time>
      </trkpt>
      <trkpt lat="44.51007" lon="1.64896">
        <ele>149</ele>
        <time>2013-05-03T18:12:49Z</time>
      </trkpt>
      <trkpt lat="44.51059" lon="1.64907">
        <ele>144</ele>
        <time>2013-05-03T18:12:49Z</time>
      </trkpt>
      <trkpt lat="44.51153" lon="1.64785">
        <ele>135.4</ele>
        <time>2013-05-03T18:12:49Z</time>
      </trkpt>
      <trkpt lat="44.51233" lon="1.64745">
        <ele>195.2</ele>
        <time>2013-05-03T18:12:49Z</time>
      </trkpt>
      <trkpt lat="44.513" lon="1.64744">
        <ele>183.8</ele>
        <time>2013-05-03T18:12:49Z</time>
      </trkpt>
      <trkpt lat="44.51382" lon="1.64683">
        <ele>200.9</ele>
        <time>2013-05-03T18:12:49Z</time>
      </trkpt>
      <trkpt lat="44.51457" lon="1.64664">
        <ele>198.2</ele>
        <time>2013-05-03T18:12:49Z</time>
      </trkpt>
      <trkpt lat="44.51457" lon="1.6463">
        <ele>209</ele>
        <time>2013-05-03T18:12:49Z</time>
      </trkpt>
      <trkpt lat="44.51375" lon="1.6465">
        <ele>210.7</ele>
        <time>2013-05-03T18:12:49Z</time>
      </trkpt>
      <trkpt lat="44.51299" lon="1.64657">
        <ele>201.7</ele>
        <time>2013-05-03T18:12:49Z</time>
      </trkpt>
      <trkpt lat="44.51256" lon="1.64582">
        <ele>214.4</ele>
        <time>2013-05-03T18:12:49Z</time>
      </trkpt>
      <trkpt lat="44.51194" lon="1.64392">
        <ele>230.2</ele>
        <time>2013-05-03T18:12:49Z</time>
      </trkpt>
      <trkpt lat="44.51143" lon="1.64287">
        <ele>239.9</ele>
        <time>2013-05-03T18:12:49Z</time>
      </trkpt>
      <trkpt lat="44.51117" lon="1.64187">
        <ele>243.6</ele>
        <time>2013-05-03T18:12:49Z</time>
      </trkpt>
      <trkpt lat="44.51108" lon="1.64139">
        <ele>248.4</ele>
        <time>2013-05-03T18:12:49Z</time>
      </trkpt>
      <trkpt lat="44.51056" lon="1.64164">
        <ele>255.2</ele>
        <time>2013-05-03T18:12:49Z</time>
      </trkpt>
      <trkpt lat="44.51042" lon="1.64306">
        <ele>261.7</ele>
        <time>2013-05-03T18:12:49Z</time>
      </trkpt>
      <trkpt lat="44.5103" lon="1.64457">
        <ele>269.2</ele>
        <time>2013-05-03T18:12:49Z</time>
      </trkpt>
      <trkpt lat="44.50965" lon="1.64534">
        <ele>276.5</ele>
        <time>2013-05-03T18:12:49Z</time>
      </trkpt>
      <trkpt lat="44.50892" lon="1.64538">
        <ele>279.3</ele>
        <time>2013-05-03T18:12:49Z</time>
      </trkpt>
      <trkpt lat="44.5079" lon="1.64451">
        <ele>291.8</ele>
        <time>2013-05-03T18:12:49Z</time>
      </trkpt>
      <trkpt lat="44.50831" lon="1.6443">
        <ele>293.1</ele>
        <time>2013-05-03T18:12:49Z</time>
      </trkpt>
      <trkpt lat="44.50861" lon="1.64387">
        <ele>296.1</ele>
        <time>2013-05-03T18:12:49Z</time>
      </trkpt>
      <trkpt lat="44.50809" lon="1.64345">
        <ele>302.5</ele>
        <time>2013-05-03T18:12:49Z</time>
      </trkpt>
      <trkpt lat="44.50749" lon="1.64161">
        <ele>318.5</ele>
        <time>2013-05-03T18:12:49Z</time>
      </trkpt>
      <trkpt lat="44.50676" lon="1.63881">
        <ele>315.6</ele>
        <time>2013-05-03T18:12:49Z</time>
      </trkpt>
      <trkpt lat="44.50739" lon="1.63651">
        <ele>325.4</ele>
        <time>2013-05-03T18:12:49Z</time>
      </trkpt>
      <trkpt lat="44.50812" lon="1.63514">
        <ele>322.4</ele>
        <time>2013-05-03T18:12:49Z</time>
      </trkpt>
      <trkpt lat="44.50798" lon="1.63399">
        <ele>321.6</ele>
        <time>2013-05-03T18:12:49Z</time>
      </trkpt>
      <trkpt lat="44.50777" lon="1.63169">
        <ele>314.7</ele>
        <time>2013-05-03T18:12:49Z</time>
      </trkpt>
      <trkpt lat="44.50745" lon="1.62901">
        <ele>314.5</ele>
        <time>2013-05-03T18:12:49Z</time>
      </trkpt>
      <trkpt lat="44.50707" lon="1.62662">
        <ele>313.4</ele>
        <time>2013-05-03T18:12:49Z</time>
      </trkpt>
      <trkpt lat="44.50643" lon="1.62427">
        <ele>328.4</ele>
        <time>2013-05-03T18:12:49Z</time>
      </trkpt>
      <trkpt lat="44.50568" lon="1.62319">
        <ele>333.2</ele>
        <time>2013-05-03T18:12:49Z</time>
      </trkpt>
    </trkseg>
  </trk>
</gpx>